, NV

(GMT )
Eureka Airport

Weather History for K05U - March, 2013

Change the Weather History Date:

Sunday, March 31, 2013

  Actual Average Record
Temperature  
Mean Temperature 48 °F -  
Max Temperature 64 °F - - ()
Min Temperature 32 °F - - ()
Degree Days  
Heating Degree Days 17    
Moisture  
Dew Point 30 °F    
Average Humidity 54    
Maximum Humidity 100    
Minimum Humidity 26    
Precipitation  
Precipitation 0.08 in - - ()
Sea Level Pressure  
Sea Level Pressure 30.06 in    
Wind  
Wind Speed 6 mph (South)    
Max Wind Speed 30 mph    
Max Gust Speed 44 mph    
Visibility 10 miles    
Events      
T = Trace of Precipitation, MM = Missing Value Source: NWS Daily Summary

Daily Weather History Graph

Daily Weather History Graph

Search for Another Location

Airport or City:

Trip Planner

Search our weather history database for the weather conditions in past years. The results will help you decide how hot, cold, wet, or windy it might be!

Date:

Astronomy

Mar. 31, 2013 Rise Set
Actual Time 6:29 AM PDT 7:07 PM PDT
Civil Twilight 6:02 AM PDT 7:34 PM PDT
Nautical Twilight 5:30 AM PDT 8:06 PM PDT
Astronomical Twilight 4:57 AM PDT 8:39 PM PDT
Moon No Moon Rise 9:22 AM PDT (3/31)
Length of Visible Light 13h 32m
Length of Day
12h 38m
Waning Gibbous, 76% of the Moon is Illuminated
Mar 31
Waning Gibbous
Apr 2
Last Quarter
Apr 10
New
Apr 18
First Quarter
Apr 25
Full

Hourly Weather History & Observations

Time (PDT) Temp. Windchill Dew Point Humidity Pressure Visibility Wind Dir Wind Speed Gust Speed Precip Events Conditions
12:00 AM 42.8 °F - 24.8 °F 49% 30.12 in 10.0 mi Calm Calm - N/A   Clear
12:20 AM 41.0 °F - 24.8 °F 53% 30.12 in 10.0 mi Calm Calm - N/A   Clear
12:35 AM 42.8 °F - 23.0 °F 46% 30.12 in 10.0 mi Calm Calm - N/A   Clear
1:00 AM 39.2 °F - 23.0 °F 52% 30.11 in 10.0 mi Calm Calm - N/A   Partly Cloudy
1:20 AM 39.2 °F - 23.0 °F 52% 30.11 in 10.0 mi Calm Calm - N/A   Clear
1:40 AM 39.2 °F - 24.8 °F 56% 30.11 in 10.0 mi Calm Calm - N/A   Clear
2:00 AM 46.4 °F 42.4 °F 26.6 °F 46% 30.11 in 10.0 mi South 8.1 mph - N/A   Clear
2:20 AM 48.2 °F - 26.6 °F 43% 30.10 in 10.0 mi SSE 8.1 mph - N/A   Clear
2:40 AM 46.4 °F 42.9 °F 26.6 °F 46% 30.10 in 10.0 mi South 6.9 mph - N/A   Clear
3:00 AM 42.8 °F 40.1 °F 24.8 °F 49% 30.10 in 10.0 mi West 4.6 mph - N/A   Clear
3:20 AM 48.2 °F - 26.6 °F 43% 30.10 in 10.0 mi South 5.8 mph - N/A   Clear
3:40 AM 48.2 °F - 26.6 °F 43% 30.09 in 10.0 mi South 4.6 mph - N/A   Clear
4:00 AM 44.6 °F - 26.6 °F 49% 30.09 in 10.0 mi Calm Calm - N/A   Clear
4:20 AM 44.6 °F 41.4 °F 26.6 °F 49% 30.09 in 10.0 mi SW 5.8 mph - N/A   Clear
4:40 AM 44.6 °F 40.7 °F 26.6 °F 49% 30.09 in 10.0 mi SSW 6.9 mph - N/A   Mostly Cloudy
5:00 AM 44.6 °F 40.2 °F 26.6 °F 49% 30.09 in 10.0 mi South 8.1 mph - N/A   Scattered Clouds
5:20 AM 44.6 °F 40.7 °F 26.6 °F 49% 30.09 in 10.0 mi SSE 6.9 mph - N/A   Scattered Clouds
5:40 AM 44.6 °F 41.4 °F 26.6 °F 49% 30.09 in 10.0 mi South 5.8 mph - N/A   Scattered Clouds
6:00 AM 44.6 °F 42.2 °F 26.6 °F 49% 30.09 in 10.0 mi SW 4.6 mph - N/A   Mostly Cloudy
6:20 AM 41.0 °F 37.1 °F 26.6 °F 57% 30.09 in 10.0 mi SSW 5.8 mph - N/A   Overcast
6:40 AM 42.8 °F - 26.6 °F 53% 30.09 in 10.0 mi Calm Calm - N/A   Overcast
7:00 AM 42.8 °F 40.1 °F 26.6 °F 53% 30.09 in 10.0 mi South 4.6 mph - N/A   Mostly Cloudy
7:20 AM 46.4 °F - 28.4 °F 50% 30.09 in 10.0 mi Calm Calm - N/A   Scattered Clouds
7:40 AM 48.2 °F - 28.4 °F 46% 30.09 in 10.0 mi Calm Calm - N/A   Partly Cloudy
8:00 AM 51.8 °F - 30.2 °F 44% 30.09 in 10.0 mi SSE 8.1 mph - N/A   Mostly Cloudy
8:20 AM 55.4 °F - 28.4 °F 36% 30.09 in 10.0 mi SSE 11.5 mph - N/A   Scattered Clouds
8:40 AM 55.4 °F - 28.4 °F 36% 30.08 in 10.0 mi SSE 11.5 mph - N/A   Mostly Cloudy
9:00 AM 59.0 °F - 28.4 °F 31% 30.08 in 10.0 mi SE 15.0 mph - N/A   Mostly Cloudy
9:15 AM 59.0 °F - 28.4 °F 31% 30.08 in 10.0 mi SE 13.8 mph - N/A   Scattered Clouds
9:40 AM 60.8 °F - 28.4 °F 29% 30.08 in 10.0 mi SSE 13.8 mph 18.4 mph N/A   Overcast
10:00 AM 59.0 °F - 28.4 °F 31% 30.08 in 10.0 mi SSE 12.7 mph - N/A   Mostly Cloudy
10:20 AM 59.0 °F - 28.4 °F 31% 30.08 in 10.0 mi SE 13.8 mph - N/A   Mostly Cloudy
10:40 AM 59.0 °F - 28.4 °F 31% 30.08 in 10.0 mi SSE 16.1 mph - N/A   Mostly Cloudy
11:00 AM 59.0 °F - 28.4 °F 31% 30.08 in 10.0 mi SE 11.5 mph 17.3 mph N/A   Scattered Clouds
11:20 AM 62.6 °F - 28.4 °F 27% 30.07 in 10.0 mi SSE 12.7 mph 18.4 mph N/A   Partly Cloudy
11:40 AM 64.4 °F - 28.4 °F 26% 30.06 in 10.0 mi SE 12.7 mph 19.6 mph N/A   Partly Cloudy
12:00 PM 64.4 °F - 28.4 °F 26% 30.05 in 10.0 mi SSE 13.8 mph 21.9 mph N/A   Clear
12:20 PM 62.6 °F - 28.4 °F 27% 30.04 in 10.0 mi SE 12.7 mph 17.3 mph N/A   Scattered Clouds
12:40 PM 60.8 °F - 26.6 °F 27% 30.04 in 10.0 mi SSE 10.4 mph 21.9 mph N/A   Overcast
1:00 PM 53.6 °F - 35.6 °F 51% 30.04 in 5.0 mi SW 11.5 mph 23.0 mph N/A   Overcast
1:20 PM 55.4 °F - 35.6 °F 47% 30.03 in 10.0 mi SSW 13.8 mph - N/A   Mostly Cloudy
1:40 PM 53.6 °F - 37.4 °F 54% 30.00 in 10.0 mi SSE 5.8 mph - N/A   Partly Cloudy
2:00 PM 59.0 °F - 32.0 °F 36% 29.99 in 10.0 mi SSE 10.4 mph - N/A   Clear
2:20 PM 60.8 °F - 30.2 °F 31% 29.99 in 10.0 mi South 9.2 mph - N/A   Clear
2:40 PM 59.0 °F - 28.4 °F 31% 29.98 in 10.0 mi SW 4.6 mph - N/A   Scattered Clouds
3:00 PM 57.2 °F - 32.0 °F 38% 29.98 in 10.0 mi WSW 19.6 mph 23.0 mph N/A   Overcast
3:20 PM 51.8 °F - 32.0 °F 47% 29.98 in 10.0 mi WSW 17.3 mph 26.5 mph N/A   Mostly Cloudy
3:35 PM 51.8 °F - 32.0 °F 47% 29.98 in 10.0 mi SW 17.3 mph 20.7 mph N/A   Mostly Cloudy
4:00 PM 53.6 °F - 30.2 °F 41% 29.96 in 10.0 mi SSW 13.8 mph 21.9 mph N/A   Scattered Clouds
4:15 PM 53.6 °F - 28.4 °F 38% 29.98 in 4.0 mi South 20.7 mph 33.4 mph N/A   Scattered Clouds
4:40 PM 53.6 °F - 28.4 °F 38% 29.96 in 10.0 mi SSE 9.2 mph - N/A   Mostly Cloudy
5:15 PM 53.6 °F - 33.8 °F 47% 29.95 in 10.0 mi NE 11.5 mph - N/A   Mostly Cloudy
5:40 PM 50.0 °F - 32.0 °F 50% 29.97 in 10.0 mi West 29.9 mph 43.7 mph N/A   Overcast
6:00 PM 41.0 °F 30.2 °F 33.8 °F 76% 30.03 in 5.0 mi West 27.6 mph 41.4 mph 0.03 in   Overcast
6:20 PM 37.4 °F 27.2 °F 33.8 °F 87% 30.05 in 3.0 mi West 19.6 mph 27.6 mph 0.03 in   Overcast
6:40 PM 39.2 °F 35.0 °F 35.6 °F 87% 30.04 in 10.0 mi North 5.8 mph - 0.04 in   Overcast
7:00 PM 39.2 °F 33.0 °F 35.6 °F 87% 30.05 in 10.0 mi SE 9.2 mph - 0.04 in   Overcast
7:20 PM 39.2 °F 32.5 °F 35.6 °F 87% 30.04 in 10.0 mi ENE 10.4 mph - N/A   Overcast
7:40 PM 39.2 °F 33.6 °F 35.6 °F 87% 30.04 in 10.0 mi NE 8.1 mph - N/A   Overcast
7:55 PM 37.4 °F - 35.6 °F 93% 30.05 in 10.0 mi Calm Calm - N/A   Overcast
8:20 PM 39.2 °F - 35.6 °F 87% 30.05 in 10.0 mi Calm Calm - N/A   Overcast
8:40 PM 39.2 °F - 35.6 °F 87% 30.05 in 10.0 mi Calm Calm - N/A   Overcast
9:00 PM 37.4 °F 34.9 °F 35.6 °F 93% 30.04 in 10.0 mi SW 3.5 mph - N/A   Overcast
9:15 PM 37.4 °F - 35.6 °F 93% 30.04 in 10.0 mi Calm Calm - N/A   Scattered Clouds
10:00 PM 35.6 °F 32.8 °F 32.0 °F 87% 30.04 in 10.0 mi South 3.5 mph - N/A   Clear
10:15 PM 33.8 °F - 32.0 °F 93% 30.04 in 10.0 mi Calm Calm - N/A   Clear
10:40 PM 33.8 °F - 32.0 °F 93% 30.04 in 10.0 mi Calm Calm - N/A   Clear
10:55 PM 32.0 °F 27.5 °F 32.0 °F 100% 30.04 in 10.0 mi South 4.6 mph - N/A   Clear
11:20 PM 32.0 °F 25.6 °F 32.0 °F 100% 30.04 in 10.0 mi ESE 6.9 mph - N/A   Clear
11:40 PM 32.0 °F - 32.0 °F 100% 30.03 in 10.0 mi Calm Calm - N/A   Partly Cloudy